Location: Unspecified
(48.2082°N, 0.0000°E)
Time: 20:33:04
(UTC+00:00)

S-56A Canister/Altair - Pass Details

Date: 24 June 2019
Orbit: 632 x 2500 km, 38.9° (Epoch: 18 July)

Event Time Altitude Azimuth Distance (km) Brightness Sun altitude
Rises 12:25:32 0° 186° (S) 5,806 12.4 64.8°
Reaches altitude 10° 12:33:13 10° 160° (SSE) 4,375 11.8 64.5°
Maximum altitude 12:36:37 12° 143° (SE) 4,005 11.6 64.3°
Drops below altitude 10° 12:39:43 10° 125° (SE) 3,910 11.4 64.1°
Sets 12:45:22 0° 96° (E) 4,424 11.3 63.8°
